Location: Middle Street
(51.7167°N, 0.0333°E)
Time: 23:40:38
(UTC+00:00)

CZ-2C R/B - Pass Details

Date: 20 January 2021
Orbit: 785 x 870 km, 98.2° (Epoch: 01 March)

Event Time Altitude Azimuth Distance (km) Brightness Sun altitude
Exits shadow 17:45:53 13° 97° (E) 2,321 4.4 -11.8°
Drops below altitude 10° 17:47:17 10° 112° (ESE) 2,503 4.7 -12.0°
Sets 17:51:07 0° 138° (SE) 3,443 5.6 -12.6°
